PDT,Max TemperatureF,Mean TemperatureF,Min TemperatureF,Max Dew PointF,MeanDew PointF,Min DewpointF,Max Humidity, Mean Humidity, Min Humidity, Max Sea Level PressureIn, Mean Sea Level PressureIn, Min Sea Level PressureIn, Max VisibilityMiles, Mean VisibilityMiles, Min VisibilityMiles, Max Wind SpeedMPH, Mean Wind SpeedMPH, Max Gust SpeedMPH,PrecipitationIn, CloudCover, Events, WindDirDegrees
2012-10-1,77,61,44,48,37,28,58,42,25,30.25,30.09,29.89,10,9,5,18,6,23,0.00,0,,306
2012-10-2,77,63,48,47,23,1,45,25,5,30.23,29.99,29.89,10,8,2,43,18,51,0.00,2,,336
2012-10-3,65,55,44,25,22,17,41,30,19,30.43,30.35,30.26,10,10,10,28,10,33,0.00,0,,17
2012-10-4,64,52,40,26,22,17,49,34,19,30.35,30.31,30.27,10,10,7,15,7,17,0.00,0,,348
2012-10-5,66,53,39,22,17,15,45,30,15,30.40,30.34,30.30,10,10,10,15,7,23,0.00,0,,357
2012-10-6,67,51,34,27,20,16,49,33,16,30.37,30.29,30.19,10,10,9,9,5,12,0.00,0,,1
2012-10-7,70,51,31,28,24,20,56,37,17,30.19,30.09,29.97,10,10,10,12,5,14,0.00,0,,35
2012-10-8,70,52,34,33,28,23,64,43,22,29.98,29.94,29.89,10,10,8,12,5,14,0.00,0,,15
2012-10-9,75,56,37,37,33,29,70,47,23,30.07,30.01,29.97,10,10,8,12,4,14,0.00,0,,70
2012-10-10,73,56,39,36,35,33,79,52,25,29.96,29.90,29.82,10,10,10,12,5,14,0.00,0,,11
2012-10-11,74,58,42,39,35,32,70,47,23,29.97,29.88,29.76,10,10,10,12,4,14,0.00,0,,6
2012-10-12,63,51,38,49,37,32,79,61,42,29.91,29.80,29.75,10,10,9,9,4,13,0.03,2,Rain,4
2012-10-13,69,56,42,50,46,42,100,73,45,30.11,30.04,29.92,10,8,0,24,8,29,0.01,4,Fog-Rain,210
2012-10-14,65,58,50,53,50,47,96,82,67,30.09,29.98,29.86,10,10,10,20,6,24,T,3,Rain,221
2012-10-15,71,61,51,57,52,45,100,70,40,29.87,29.74,29.52,10,10,8,25,10,31,0.11,5,Rain,191
2012-10-16,62,53,43,55,38,23,65,57,48,30.12,29.78,29.48,10,8,1,39,17,54,0.00,1,,258
2012-10-17,59,48,37,36,30,25,70,49,28,30.27,30.22,30.14,10,10,9,22,5,24,0.00,1,,185
2012-10-18,60,49,37,36,33,31,85,59,33,30.26,30.10,29.85,10,9,3,9,3,13,T,1,Rain,6
2012-10-19,71,57,42,47,41,33,83,62,40,29.83,29.71,29.61,10,10,9,31,10,37,T,2,Rain,219
2012-10-20,56,43,29,33,23,13,64,42,19,29.84,29.77,29.66,10,10,10,30,11,35,T,0,,235
2012-10-21,51,39,26,31,26,20,85,64,42,29.92,29.87,29.84,10,10,9,13,6,14,0.00,0,Snow,7
2012-10-22,50,43,35,37,33,29,92,69,46,29.82,29.64,29.55,10,9,5,21,9,24,0.20,8,Rain-Snow,290
2012-10-23,45,39,32,36,34,30,100,85,70,29.96,29.80,29.65,10,6,0,9,3,10,T,5,Fog-Snow,53
2012-10-24,42,37,31,37,34,30,92,86,79,30.17,30.03,29.96,10,10,7,12,6,14,0.02,6,Rain-Snow,323
2012-10-25,50,40,30,37,35,30,92,77,61,30.44,30.33,30.15,10,10,9,13,3,16,T,4,Snow,279
2012-10-26,39,37,34,37,35,33,100,90,79,30.41,30.21,30.07,10,8,2,10,6,12,0.37,7,Rain-Snow,353
2012-10-27,45,42,38,43,40,36,100,93,85,30.10,29.99,29.85,10,6,2,13,1,15,0.19,8,Rain,137
2012-10-28,51,47,43,47,44,42,100,90,80,29.91,29.86,29.81,10,5,0,8,4,10,0.03,6,Fog-Rain,13
2012-10-29,70,59,47,52,46,39,100,69,37,29.99,29.85,29.77,10,5,0,24,10,32,0.04,5,Fog-Rain,233
2012-10-30,56,52,47,51,48,42,100,89,77,29.98,29.90,29.84,10,10,6,12,5,12,0.02,7,Rain,358
2012-10-31,57,51,44,52,50,45,100,90,80,29.84,29.74,29.67,10,9,4,13,6,15,T,4,Rain,2